Flag for Canada Weather past 2 weeks in Lloydminster, Alberta, Canada

Now
75 °F

Broken clouds.


Feels Like: 76 °F
Forecast: 54 / 82 °F
Wind: 6 mph from North

Location: Lloydminister

Current Time: May 25, 2015 at 7:56:04 PM

Latest Report: May 25, 2015 at 7:00 PM


Visibility: 15 mi

Pressure: 29.81 "Hg

Humidity: 21%

Dew point: 32 °F

Location of LloydminsterLocation

Historic Weather in Lloydminster — Graph

°F

Lloydminster temperature yesterday

Maximum temperature yesterday: 77 °F (at 12:00 PM)
Minimum temperature yesterday: 48 °F (at 5:00 AM)
Average temperature yesterday: 65 °F

Past Weeks' High & Low Weather Summary

 TemperatureHumidityPressure
High79 °F (May 23, 12:00 PM)93% (May 14, 5:00 AM)30.52 "Hg (May 14, 5:00 AM)
Low27 °F (May 17, 5:00 AM)12% (May 19, 3:00 PM)29.81 "Hg (May 25, 5:00 PM)
Average54 °F37%30.17 "Hg
* Reported May 10 6:00 PM — May 25 6:00 PM, Lloydminster, Weather by CustomWeather, © 2015

Note: Actual official high and low records may vary slightly from our data, if they occured in-between our weather recording intervals... More about our weather records

Advertising

Lloydminster weather history for previous 24 hours

 ConditionsComfort  
Time TempWeatherWind HumidityBarometerVisibility
6:00 PM
Mon, May 25
77 °FBroken clouds.10 mph21%29.81 "Hg15 mi
5:00 PM79 °FBroken clouds.12 mph16%29.81 "Hg15 mi
4:00 PM77 °FBroken clouds.3 mph17%29.83 "Hg15 mi
3:00 PM77 °FPartly sunny.12 mph17%29.84 "Hg15 mi
2:00 PM75 °FPartly sunny.9 mph15%29.84 "Hg15 mi
1:00 PM79 °FPartly sunny.9 mph16%29.83 "Hg15 mi
12:00 PM79 °FBroken clouds.6 mph16%29.85 "Hg15 mi
11:00 AM75 °FBroken clouds.2 mph19%29.86 "Hg15 mi
10:00 AM72 °FPartly sunny.6 mph25%29.87 "Hg15 mi
9:00 AM70 °FPartly sunny.8 mph27%29.88 "Hg15 mi
8:00 AM66 °FSprinkles. Broken clouds.16 mph37%29.89 "Hg15 mi
7:00 AM59 °FPartly sunny.3 mph48%29.90 "Hg15 mi
6:00 AM55 °FPassing clouds.5 mph59%29.88 "Hg9 mi
5:00 AM55 °FOvercast.7 mph51%29.89 "Hg9 mi
4:00 AM55 °FMostly cloudy.6 mph51%29.89 "Hg9 mi
3:00 AM57 °FPassing clouds.13 mph48%29.88 "Hg9 mi
2:00 AM61 °FPassing clouds.12 mph39%29.88 "Hg9 mi
1:00 AM57 °FPassing clouds.9 mph48%29.89 "Hg9 mi
12:00 AM59 °FPassing clouds.8 mph45%29.90 "Hg9 mi
11:00 PM
Sun, May 24
61 °FPassing clouds.6 mph39%29.91 "Hg9 mi
10:00 PM63 °FBroken clouds.3 mph37%29.92 "Hg15 mi
9:00 PM63 °FBroken clouds.6 mph42%29.94 "Hg15 mi
8:00 PM70 °FBroken clouds.10 mph29%29.95 "Hg15 mi
7:00 PM75 °FBroken clouds.5 mph16%29.93 "Hg15 mi
Weather by CustomWeather, © 2015

See weather overviewHow to use our weather pages